Погода в Аллах-Юне

Россия / Республика Саха (Якутия)     61°07′57″N   138°02′43″E
темп.,
°C
ветер,
м/с
пор.,
м/с
влажн.,
%
обл.,
%
осадки,
мм/ч
давл.,
гПа
погр.,
м
27 февраля, сб
сб2700:00−34с0010090 0.0 103219
03:00−32ссв119893 0.0 103119
06:00−35ссв121000 0.0 103019
09:00−30св119612 0.0 102948
12:00−24ссв22870 0.0 1026197
15:00−22ссв12870 0.0 1024170
18:00−29св22940 0.0 102319
21:00−30св22890 0.0 102219
28 февраля, вс
вс2800:00−31св22860 0.0 102019
03:00−31св228719 0.0 101819
06:00−31св228399 0.0 101819
09:00−27св2282100 0.0 101760
12:00−22св2277100 0.0 1017213
15:00−21с1182100 0.0 1016156
18:00−24с1293100 0.0 101920
21:00−25зсз11100100 0.1 102020
1 марта, пн
пн100:00−26зсз1199100 0.1 102120
03:00−28з1199100 0.2 102219
06:00−30з11100100 0.1 102219
09:00−29з1197100 0.1 1023117
12:00−27зсз2285100 0.0 1022516
15:00−28сз2284100 0.1 1021565
18:00−33зсз229598 0.0 102419
21:00−35сз129997 0.0 102419
2 марта, вт
вт200:00−36ссз129995 0.0 102319
03:00−35ссз129798 0.0 102321
06:00−35сз1197100 0.0 102220
09:00−33сз1193100 0.1 1022198
12:00−31сз1183100 0.0 1021390
15:00−29сз1187100 0.1 1021400
18:00−31сз1197100 0.1 102319
21:00−32зсз1198100 0.1 102419
3 марта, ср
ср300:00−33ссз1198100 0.1 102319
03:00−33ссз1198100 0.1 102319
06:00−35ссз1199100 0.0 102219
09:00−32ссз1196100 0.0 102064
12:00−28сз228895 0.0 1017290
15:00−27сз228997 0.0 1015369
18:00−35зсз2210085 0.0 101519
21:00−38зсз1110079 0.0 101419